Weather History for Memphis, TN

Change the Weather History Date:

Saturday, March 2, 2013

  Actual Average Record
Temperature  
Mean Temperature 33 °F 50 °F  
Max Temperature 36 °F 59 °F 83 °F (2012)
Min Temperature 29 °F 40 °F 17 °F (1943)
Degree Days  
Heating Degree Days 32 15  
Month to date heating degree days 61 31  
Since 1 July heating degree days 2259 2481  
Cooling Degree Days 0 0  
Month to date cooling degree days 0 0  
Year to date cooling degree days 9 3  
Moisture  
Dew Point 24 °F    
Average Humidity 69    
Maximum Humidity 82    
Minimum Humidity 56    
Precipitation  
Precipitation 0.01 in 0.16 in 2.39 in (2014)
Month to date precipitation 0.01 0.31  
Year to date precipitation 13.58 8.68  
Snow  
Snow 0.00 in 0.00 in T in (2013)
Month to date snowfall 0.0 0.0  
Since 1 July snowfall 0.9 3.4  
Snow Depth 0.00 in    
Sea Level Pressure  
Sea Level Pressure 30.21 in    
Wind  
Wind Speed 9 mph (NNW)    
Max Wind Speed 18 mph    
Max Gust Speed 23 mph    
Visibility 8 miles    
Events Snow    
T = Trace of Precipitation, MM = Missing Value Source: NWS Daily Summary

Daily Weather History Graph

Daily Weather History Graph

Search for Another Location

Airport:

Trip Planner

Search our weather history database for the weather conditions in past years. The results will help you decide how hot, cold, wet, or windy it might be!

Date:

Astronomy

Mar. 02, 2013 Rise Set
Actual Time 6:27 AM CST 5:56 PM CST
Civil Twilight 6:02 AM CST 6:22 PM CST
Nautical Twilight 5:33 AM CST 6:51 PM CST
Astronomical Twilight 5:03 AM CST 7:20 PM CST
Moon 11:21 PM CST (3/2) 9:09 AM CST (3/2)
Length of Visible Light 12h 19m
Length of Day
11h 28m
Waning Gibbous, 74% of the Moon is Illuminated
Mar 2
Waning Gibbous
Mar 4
Last Quarter
Mar 11
New
Mar 19
First Quarter
Mar 27
Full

Hourly Weather History & Observations

Time (CST) Temp. Windchill Dew Point Humidity Pressure Visibility Wind Dir Wind Speed Gust Speed Precip Events Conditions
12:54 AM 32.0 °F 23.6 °F 26.6 °F 80% 30.16 in 5.0 mi NW 10.4 mph - N/A Snow Light Snow
1:18 AM 32.0 °F 24.2 °F 28.4 °F 87% 30.16 in 6.0 mi NW 9.2 mph - 0.00 in Snow Light Snow
1:54 AM 32.0 °F 24.2 °F 28.0 °F 85% 30.16 in 6.0 mi NW 9.2 mph - 0.00 in   Overcast
2:54 AM 32.0 °F 24.2 °F 28.0 °F 85% 30.14 in 8.0 mi NNW 9.2 mph - 0.00 in Snow Light Snow
3:54 AM 33.1 °F 24.9 °F 28.0 °F 82% 30.15 in 6.0 mi NNW 10.4 mph - 0.00 in Snow Light Snow
4:08 AM 33.8 °F 25.3 °F 28.4 °F 81% 30.15 in 6.0 mi NNW 11.5 mph - 0.00 in Snow Light Snow
4:50 AM 33.8 °F 26.4 °F 26.6 °F 75% 30.16 in 7.0 mi NNW 9.2 mph - 0.00 in Snow Light Snow
4:54 AM 33.8 °F 27.0 °F 26.6 °F 75% 30.16 in 7.0 mi NNW 8.1 mph - N/A Snow Light Snow
5:13 AM 33.8 °F 26.4 °F 26.6 °F 75% 30.16 in 9.0 mi NNW 9.2 mph - 0.00 in   Overcast
5:54 AM 33.1 °F 26.9 °F 25.0 °F 72% 30.17 in 8.0 mi NNW 6.9 mph - 0.00 in   Overcast
6:06 AM 33.8 °F 27.0 °F 24.8 °F 70% 30.16 in 9.0 mi North 8.1 mph - N/A   Overcast
6:35 AM 32.0 °F 23.0 °F 26.6 °F 80% 30.17 in 9.0 mi NW 11.5 mph 16.1 mph 0.00 in   Overcast
6:43 AM 32.0 °F 23.6 °F 24.8 °F 75% 30.17 in 9.0 mi NW 10.4 mph - 0.00 in   Mostly Cloudy
6:54 AM 32.0 °F 24.8 °F 25.0 °F 75% 30.19 in 10.0 mi NW 8.1 mph - 0.00 in   Mostly Cloudy
7:07 AM 32.0 °F 24.8 °F 24.8 °F 75% 30.18 in 10.0 mi NW 8.1 mph 17.3 mph N/A   Mostly Cloudy
7:54 AM 32.0 °F 23.6 °F 24.1 °F 73% 30.21 in 10.0 mi NNW 10.4 mph - N/A   Overcast
8:54 AM 33.1 °F 23.9 °F 25.0 °F 72% 30.23 in 10.0 mi NNW 12.7 mph - N/A   Overcast
9:03 AM 32.0 °F 22.1 °F 24.8 °F 75% 30.22 in 7.0 mi NNW 13.8 mph - 0.00 in Snow Light Snow
9:18 AM 32.0 °F 24.2 °F 24.8 °F 75% 30.23 in 2.0 mi NNW 9.2 mph - 0.00 in Snow Light Snow
9:40 AM 30.2 °F 20.8 °F 26.6 °F 86% 30.23 in 1.5 mi NW 11.5 mph - 0.00 in Snow Light Snow
9:54 AM 30.9 °F 23.5 °F 26.1 °F 82% 30.25 in 1.5 mi NW 8.1 mph - 0.01 in Snow Light Snow
10:06 AM 32.0 °F 23.0 °F 26.6 °F 80% 30.24 in 2.0 mi NNW 11.5 mph - 0.00 in Snow Light Snow
10:26 AM 32.0 °F 24.2 °F 26.6 °F 80% 30.24 in 2.5 mi NW 9.2 mph - 0.00 in Snow Light Snow
10:34 AM 32.0 °F 23.0 °F 26.6 °F 80% 30.24 in 3.0 mi NNW 11.5 mph - 0.00 in Snow Light Snow
10:54 AM 33.1 °F 24.9 °F 27.0 °F 78% 30.25 in 4.0 mi NNW 10.4 mph - 0.00 in Snow Light Snow
11:16 AM 33.8 °F 24.8 °F 24.8 °F 70% 30.23 in 8.0 mi NW 12.7 mph - 0.00 in Snow Light Snow
11:54 AM 35.1 °F 25.9 °F 23.0 °F 61% 30.23 in 10.0 mi NNW 13.8 mph - 0.00 in   Overcast
12:35 PM 35.6 °F 26.2 °F 21.2 °F 56% 30.21 in 10.0 mi NW 15.0 mph 19.6 mph N/A   Overcast
12:54 PM 36.0 °F 27.5 °F 21.0 °F 55% 30.21 in 10.0 mi NNW 12.7 mph - N/A   Overcast
1:22 PM 35.6 °F 28.6 °F 21.2 °F 56% 30.20 in 10.0 mi NNW 9.2 mph - N/A   Overcast
1:54 PM 35.1 °F 26.9 °F 21.9 °F 59% 30.21 in 9.0 mi NNW 11.5 mph - N/A   Overcast
2:45 PM 35.6 °F 26.6 °F 21.2 °F 56% 30.20 in 10.0 mi NW 13.8 mph - 0.00 in Snow Light Snow
2:54 PM 34.0 °F 24.6 °F 23.0 °F 64% 30.21 in 7.0 mi NW 13.8 mph - 0.00 in Snow Light Snow
3:27 PM 35.6 °F 26.2 °F 23.0 °F 60% 30.21 in 9.0 mi NNW 15.0 mph 18.4 mph 0.00 in   Overcast
3:54 PM 34.0 °F 23.0 °F 21.9 °F 61% 30.22 in 10.0 mi NNW 18.4 mph 21.9 mph 0.00 in   Overcast
4:54 PM 33.1 °F 24.4 °F 21.9 °F 64% 30.23 in 9.0 mi North 11.5 mph - 0.00 in   Overcast
5:54 PM 33.1 °F 24.4 °F 21.0 °F 61% 30.24 in 10.0 mi NNW 11.5 mph - N/A   Overcast
6:54 PM 33.1 °F 26.9 °F 19.9 °F 59% 30.25 in 10.0 mi NNW 6.9 mph - N/A   Overcast
7:36 PM 33.8 °F 25.8 °F 19.4 °F 56% 30.25 in 10.0 mi North 10.4 mph - N/A   Overcast
7:54 PM 33.1 °F 25.5 °F 19.9 °F 59% 30.26 in 10.0 mi North 9.2 mph - N/A   Overcast
8:54 PM 33.1 °F 28.7 °F 21.0 °F 61% 30.26 in 10.0 mi NNW 4.6 mph - N/A   Overcast
9:54 PM 32.0 °F - 19.9 °F 61% 30.26 in 10.0 mi Calm Calm - N/A   Overcast
10:54 PM 32.0 °F - 21.9 °F 66% 30.25 in 10.0 mi Calm Calm - N/A   Mostly Cloudy
11:54 PM 28.9 °F - 21.0 °F 72% 30.25 in 10.0 mi Calm Calm - N/A   Partly Cloudy